Regional Weather Roundup
Issued by NWS

Home | Current Version | Previous Version | Text Only | Print | Product List | Glossary Off
Versions: 1 2 3 4 5 6 7 8 9 10 11 12 13 14 15 16 17 18 19 20 21 22 23 24 25 26 27

000
ASUS45 KTFX 200310
RWRMT
MONTANA REGIONAL WEATHER ROUNDUP
NATIONAL WEATHER SERVICE GREAT FALLS MT
800 PM MST THU JAN 19 2017

NOTE: "FAIR" INDICATES FEW OR NO CLOUDS BELOW 12000 FEET WITH NO
SIGNIFICANT WEATHER AND/OR OBSTRUCTIONS TO VISIBILITY.

MTZ001>007-043-200400-
WEST OF THE DIVIDE

CITY           SKY/WX    TMP DP  RH WIND       PRES   REMARKS
KALISPELL      CLOUDY    30  30 100 S5        29.55S FOG
MISSOULA       CLOUDY    32  32 100 CALM      29.60S FOG
BUTTE          CLOUDY    31  23  72 N7        29.54R WCI  24
MULLAN PASS    SNOW      29  24  82 VRB3      29.53S VSB 1/2
ANACONDA         N/A     32  30  93 NW6       29.54F WCI  26
DEER LODGE       N/A     32  32 100 NE6       29.57S WCI  26
EUREKA           N/A     37  30  75 E8        29.55S WCI  31
HAMILTON         N/A     34  32  93 CALM        N/A
PLAINS           N/A     27  22  81 CALM      29.62S VSB 0
RONAN            N/A     33  31  93 W3        29.64S
$$

MTZ008-052>055-200400-
SOUTHWEST MONTANA

CITY           SKY/WX    TMP DP  RH WIND       PRES   REMARKS
BOZEMAN        CLOUDY    29  25  85 E3        29.54S
DILLON         CLOUDY    34  20  56 S6        29.56R WCI  29
W YELLOWSTONE  CLOUDY    27  25  93 SW3       29.62S
ENNIS          CLOUDY    32  25  74 S21       29.61S WCI  20
TWIN BRIDGES     N/A     27  20  75 E6        29.61S WCI  21
$$

MTZ009-010-012-014-046-048-049-054-200400-
EAST SLOPES AND CENTRAL MONTANA

CITY           SKY/WX    TMP DP  RH WIND       PRES   REMARKS
CUT BANK       CLOUDY    36  25  64 SW7       29.45R WCI  30
GREAT FALLS    CLOUDY    37  28  70 S10       29.47S WCI  30
MALMSTROM AFB  CLOUDY    39  30  70 SW13      29.48R WCI  31
HELENA         CLOUDY    34  27  75 CALM      29.52S
AUGUSTA        MOCLDY    36  24  62 W14       29.47R WCI  27
BOWMANS CRNR   MOCLDY    35  29  78 S13       29.46S WCI  27
CHOTEAU          N/A     37  25  60 W7        29.48S
CONRAD           N/A     39  31  73 W7        29.52S
POWER          MOCLDY    35  29  79 W7        29.46S WCI  29
RAYNESFORD     MOCLDY    40  28  60 SW7       29.48R
ULM            MOCLDY    37  30  76 MISG      29.48R
$$

MTZ011-013-016-021-045-047-050-051-200400-
NORTH CENTRAL MONTANA

CITY           SKY/WX    TMP DP  RH WIND       PRES   REMARKS
HAVRE          CLOUDY    36  32  85 W6        29.45S WCI  31
LEWISTOWN      CLOUDY    39  32  76 S10       29.48S
CHINOOK          N/A     37  32  81 CALM      29.44F
DENTON           N/A     37  31  77 SW13      29.44S WCI  29
FORT BENTON      N/A     39  30  70 MISG      29.47S
GEYSER         CLOUDY    38  29  70 SW7       29.47S
GRASS RANGE    LGT RAIN  41  35  78 SW12      29.45S
JUDITH GAP     CLOUDY    37  27  67 W17       29.49F WCI  28
ROY            MOCLDY    45  31  58 MISG      29.46S
STANFORD       MOCLDY    37  29  73 SW3       29.48R
WINIFRED       CLOUDY    40  32  74 SW10      29.46S
$$

MTZ017>020-022>027-061-062-200400-
NORTHEAST MONTANA

CITY           SKY/WX    TMP DP  RH WIND       PRES   REMARKS
GLASGOW        CLOUDY    26  21  81 S6        29.45S WCI  19
JORDAN           N/A     31  28  89 W5        29.46S
SIDNEY         CLOUDY    19  17  92 SW3       29.44F
WOLF POINT     CLOUDY    20  17  88 SW5       29.45F
PLENTYWOOD       N/A     25  21  86 CALM      29.42S
POPLAR           N/A     21  18  86 CALM      29.45F
SCOBEY           N/A     24  16  71 CALM      29.44F
$$

MTZ028>42-056>058-200400-
SOUTHCENTRAL AND SOUTHEAST MONTANA

CITY           SKY/WX    TMP DP  RH WIND       PRES   REMARKS
BAKER          CLOUDY    27  19  72 CALM      29.45S
BILLINGS       DRIZZLE   36  25  64 SW14      29.52F WCI  27
LIVINGSTON     CLOUDY    39  24  55 SW24G30   29.52S WCI  28
MILES CITY     CLOUDY    22  16  78 SW3       29.47F
BIG TIMBER     CLOUDY    39  27  60 W18       29.54S WCI  30
FORSYTH          N/A     32  25  74 W5        29.48S
HARLOWTON      CLOUDY    38  27  66 W12       29.51S WCI  30
LAUREL           N/A     34  21  59 CALM      29.56R
$$

REGIONAL REPORTS...DAKOTAS

CITY           SKY/WX    TMP DP  RH WIND       PRES   REMARKS
WILLISTON      CLOUDY    14  12  92 CALM      29.44F
MINOT          CLOUDY    27  22  81 S8        29.42F WCI  19
DICKINSON      CLOUDY    21  16  81 CALM      29.41F
BEACH            N/A     28  21  74 SW5       29.47R
CROSBY           N/A     21  19  93 S12       29.44F WCI   9
TIOGA            N/A     21  21 100 CALM      29.45S
WATFORD CITY     N/A     18  16  93 SW3       29.44S
BISMARCK       CLOUDY    13  10  88 SE8       29.50R WCI   2
GRAND FORKS    CLOUDY    35  32  88 S16       29.56R FOG     WCI  25
FARGO          FOG       36  36 100 S14       29.59S VSB 3/4 WCI  27
BUFFALO SD       N/A     32  21  64 W7        29.38F WCI  26
RAPID CITY     CLOUDY    29  20  69 NW6       29.45F WCI  23
$$

REGIONAL REPORTS...WYOMING/IDAHO/WASHINGTON

CITY           SKY/WX    TMP DP  RH WIND       PRES   REMARKS
GILLETTE       CLOUDY    32  24  72 W7        29.49S WCI  26
SHERIDAN       PTCLDY    27  20  75 S8        29.50F WCI  19
BUFFALO WY     CLOUDY    35  21  56 NW7       29.51S WCI  29
CODY           CLOUDY    40  22  48 W9        29.54R
YELLOWSTONE LA   N/A     23  22  96 CALM      29.63S
IDAHO FALLS    CLOUDY    30  29  96 W3        29.67F
SALMON         CLOUDY    27  25  93 CALM      29.62S
BOISE          MOCLDY    35  31  85 SE9       29.68S WCI  28
SPOKANE        PTCLDY    33  30  88 SE8       29.57F WCI  26
$$

REGIONAL REPORTS...ALBERTA

CITY           SKY/WX    TMP DP  RH WIND       PRES   REMARKS
EDMONTON       PTCLDY    32  21  64 W8        29.21R WCI  25
CALGARY        MOCLDY    39  18  41 VRB3      29.30S
LETHBRIDGE     CLOUDY    39  27  60 W22       29.38F WCI  29
MEDICINE HAT   CLOUDY    37  30  75 S8        29.37R WCI  31
WATERTON GATE    N/A     36  21  55 SW15G23     N/A  WCI  26
CARDSTON         N/A     39  21  48 W14G23      N/A  WCI  31
MILK RIVER       N/A     36  28  75 SW6         N/A  WCI  31
$$

REGIONAL REPORTS...SASKATCHEWAN

CITY           SKY/WX    TMP DP  RH WIND       PRES   REMARKS
SWIFT CURRENT  CLOUDY    37  32  81 SW14      29.36S WCI  29
REGINA         MOCLDY    32  28  86 SE6       29.39R WCI  26
SASKATOON      MOCLDY    36  32  87 S8        29.30F WCI  29
CYPRESS HILLS    N/A     34  27  75 S8          N/A  WCI  27
VAL MARIE        N/A     32  30  93 S3          N/A
ROCKGLEN         N/A     36  30  80 W7          N/A  WCI  30
ASSINIBOIA       N/A     25  23  93 S2          N/A
$$




USA.gov is the U.S. government's official web portal to all federal, state and local government web resources and services.